Location: Limerick
(52.6650°N, 8.6230°W)
Time: 19:49:52
(UTC+01:00)

ISS - Visible Passes

Search period start: 15 May 2021 00:00
Search period end: 25 May 2021 00:00
Orbit: 417 x 422 km, 51.6° (Epoch: 15 May)

Date Brightness Start Highest point End Pass type
(mag) Time Alt. Az. Time Alt. Az. Time Alt. Az.
15 May -3.9 01:01:22 10° WSW 01:04:44 69° S 01:08:06 10° E visible
15 May -3.9 02:38:06 10° W 02:41:28 66° S 02:44:50 10° ESE visible
15 May -2.7 04:15:04 10° W 04:17:57 26° SSW 04:20:49 10° SSE visible
15 May -2.5 22:38:18 10° SSW 22:40:55 21° SSE 22:43:32 10° E visible
16 May -3.8 00:13:59 10° WSW 00:17:19 59° SSE 00:20:39 10° E visible
16 May -3.9 01:50:40 10° W 01:54:02 73° S 01:57:25 10° ESE visible
16 May -3.2 03:27:30 10° W 03:30:37 34° SSW 03:33:43 10° SE visible
16 May -3.6 23:26:39 10° SW 23:29:54 48° SSE 23:33:11 10° E visible
17 May -3.9 01:03:13 10° W 01:06:36 76° S 01:09:58 10° E visible
17 May -3.5 02:40:01 10° W 02:43:16 44° SSW 02:46:30 10° SE visible
17 May -2.0 04:19:15 14° SW 04:19:28 14° SW 04:21:15 10° S visible
17 May -3.2 22:39:23 10° SW 22:42:32 37° SSE 22:45:42 10° E visible
18 May -3.9 00:15:47 10° W 00:19:09 75° S 00:22:32 10° E visible
18 May -3.7 01:52:33 10° W 01:55:46 55° SSW 01:55:46 55° SSW visible
18 May -3.9 23:28:21 10° WSW 23:31:42 69° S 23:35:04 10° E visible
19 May -3.9 01:05:05 10° W 01:08:26 66° S 01:09:22 42° SE visible
19 May -1.3 02:42:02 10° W 02:42:17 11° W 02:42:17 11° W visible
19 May -3.7 22:40:56 10° WSW 22:44:16 59° SSE 22:47:36 10° E visible
20 May -3.9 00:17:37 10° W 00:20:59 73° S 00:23:11 20° ESE visible
20 May -2.2 01:54:28 10° W 01:56:06 23° WSW 01:56:06 23° WSW visible
20 May -3.9 23:30:09 10° W 23:33:32 76° S 23:36:54 10° E visible
21 May -3.4 01:06:57 10° W 01:10:01 44° SSW 01:10:01 44° SSW visible
21 May -3.8 22:42:42 10° W 22:46:04 75° S 22:49:26 10° E visible
22 May -3.7 00:19:28 10° W 00:22:47 55° SSW 00:23:57 34° SE visible
22 May -1.2 01:56:40 10° W 01:56:53 11° W 01:56:53 11° W visible
22 May -3.8 23:31:59 10° W 23:35:20 66° S 23:37:56 16° ESE visible
23 May -2.2 01:08:57 10° W 01:10:51 22° WSW 01:10:51 22° WSW visible
23 May -3.8 22:44:30 10° W 22:47:52 73° S 22:51:14 10° ESE visible
24 May -3.0 00:21:22 10° W 00:24:27 34° SSW 00:24:53 33° S visible
24 May -3.3 23:33:49 10° W 23:37:03 44° SSW 23:38:54 22° SE visible
